Time,TemperatureF,DewpointF,PressureIn,WindDirection,WindDirectionDegrees,WindSpeedMPH,WindSpeedGustMPH,Humidity,HourlyPrecipIn,Conditions,Clouds,dailyrainin,SoftwareType,DateUTC
2013-04-06 01:00:00,53.0,-99.9,-100.00,East,97,11.0,13.0,-999,-99.99,,,-99.99,,2013-04-06 06:00:00,
2013-04-06 01:33:00,53.0,-99.9,-100.00,East,97,11.0,13.0,-999,-99.99,,,-99.99,,2013-04-06 06:33:00,
2013-04-06 01:43:00,53.0,-99.9,-100.00,East,97,11.0,13.0,-999,-99.99,,,-99.99,,2013-04-06 06:43:00,
2013-04-06 01:53:00,53.0,-99.9,-100.00,East,97,11.0,13.0,-999,-99.99,,,-99.99,,2013-04-06 06:53:00,
2013-04-06 02:00:00,54.0,-99.9,-100.00,ESE,103,12.0,14.0,-999,-99.99,,,-99.99,,2013-04-06 07:00:00,
2013-04-06 02:35:00,54.0,-99.9,-100.00,ESE,103,12.0,14.0,-999,-99.99,,,-99.99,,2013-04-06 07:35:00,
2013-04-06 02:45:00,54.0,-99.9,-100.00,ESE,103,12.0,14.0,-999,-99.99,,,-99.99,,2013-04-06 07:45:00,
2013-04-06 02:53:00,54.0,-99.9,-100.00,ESE,103,12.0,14.0,-999,-99.99,,,-99.99,,2013-04-06 07:53:00,
2013-04-06 03:00:00,54.0,-99.9,-100.00,SSE,158,4.0,14.0,-999,-99.99,,,-99.99,,2013-04-06 08:00:00,
2013-04-06 03:32:00,54.0,-99.9,-100.00,SSE,158,4.0,14.0,-999,-99.99,,,-99.99,,2013-04-06 08:32:00,
2013-04-06 03:43:00,54.0,-99.9,-100.00,SSE,158,4.0,14.0,-999,-99.99,,,-99.99,,2013-04-06 08:43:00,
2013-04-06 03:52:00,54.0,-99.9,-100.00,SSE,158,4.0,14.0,-999,-99.99,,,-99.99,,2013-04-06 08:52:00,
2013-04-06 04:00:00,54.0,-99.9,-100.00,ESE,111,12.0,18.0,-999,-99.99,,,-99.99,,2013-04-06 09:00:00,
2013-04-06 04:54:00,54.0,-99.9,-100.00,ESE,111,12.0,18.0,-999,-99.99,,,-99.99,,2013-04-06 09:54:00,
2013-04-06 05:00:00,54.0,-99.9,-100.00,ESE,104,9.0,16.0,-999,-99.99,,,-99.99,,2013-04-06 10:00:00,
2013-04-06 05:34:00,54.0,-99.9,-100.00,ESE,104,9.0,16.0,-999,-99.99,,,-99.99,,2013-04-06 10:34:00,
2013-04-06 05:43:00,54.0,-99.9,-100.00,ESE,104,9.0,16.0,-999,-99.99,,,-99.99,,2013-04-06 10:43:00,
2013-04-06 05:54:00,54.0,-99.9,-100.00,ESE,104,9.0,16.0,-999,-99.99,,,-99.99,,2013-04-06 10:54:00,
2013-04-06 06:00:00,54.0,-99.9,-100.00,ESE,112,10.0,14.0,-999,-99.99,,,-99.99,,2013-04-06 11:00:00,
2013-04-06 06:33:00,54.0,-99.9,-100.00,ESE,112,10.0,14.0,-999,-99.99,,,-99.99,,2013-04-06 11:33:00,
2013-04-06 06:43:00,54.0,-99.9,-100.00,ESE,112,10.0,14.0,-999,-99.99,,,-99.99,,2013-04-06 11:43:00,
2013-04-06 06:53:00,54.0,-99.9,-100.00,ESE,112,10.0,14.0,-999,-99.99,,,-99.99,,2013-04-06 11:53:00,
2013-04-06 07:00:00,52.0,-99.9,-100.00,East,97,10.0,11.0,-999,-99.99,,,-99.99,,2013-04-06 12:00:00,
2013-04-06 07:33:00,52.0,-99.9,-100.00,East,97,10.0,11.0,-999,-99.99,,,-99.99,,2013-04-06 12:33:00,
2013-04-06 07:44:00,52.0,-99.9,-100.00,East,97,10.0,11.0,-999,-99.99,,,-99.99,,2013-04-06 12:44:00,
2013-04-06 07:53:00,52.0,-99.9,-100.00,East,97,10.0,11.0,-999,-99.99,,,-99.99,,2013-04-06 12:53:00,
2013-04-06 08:00:00,54.0,-99.9,-100.00,SE,133,13.0,14.0,-999,-99.99,,,-99.99,,2013-04-06 13:00:00,
2013-04-06 08:33:00,54.0,-99.9,-100.00,SE,133,13.0,14.0,-999,-99.99,,,-99.99,,2013-04-06 13:33:00,
2013-04-06 08:44:00,54.0,-99.9,-100.00,SE,133,13.0,14.0,-999,-99.99,,,-99.99,,2013-04-06 13:44:00,
2013-04-06 08:54:00,54.0,-99.9,-100.00,SE,133,13.0,14.0,-999,-99.99,,,-99.99,,2013-04-06 13:54:00,
2013-04-06 09:00:00,56.0,-99.9,-100.00,ESE,117,16.0,16.0,-999,-99.99,,,-99.99,,2013-04-06 14:00:00,
2013-04-06 09:33:00,56.0,-99.9,-100.00,ESE,117,16.0,16.0,-999,-99.99,,,-99.99,,2013-04-06 14:33:00,
2013-04-06 09:43:00,56.0,-99.9,-100.00,ESE,117,16.0,16.0,-999,-99.99,,,-99.99,,2013-04-06 14:43:00,
2013-04-06 09:54:00,56.0,-99.9,-100.00,ESE,117,16.0,16.0,-999,-99.99,,,-99.99,,2013-04-06 14:54:00,
2013-04-06 10:00:00,58.0,-99.9,-100.00,ESE,106,8.0,20.0,-999,-99.99,,,-99.99,,2013-04-06 15:00:00,
2013-04-06 10:34:00,58.0,-99.9,-100.00,ESE,106,8.0,20.0,-999,-99.99,,,-99.99,,2013-04-06 15:34:00,
2013-04-06 10:44:00,58.0,-99.9,-100.00,ESE,106,8.0,20.0,-999,-99.99,,,-99.99,,2013-04-06 15:44:00,
2013-04-06 10:54:00,58.0,-99.9,-100.00,ESE,106,8.0,20.0,-999,-99.99,,,-99.99,,2013-04-06 15:54:00,
2013-04-06 12:00:00,61.0,-99.9,-100.00,SSE,164,5.0,21.0,-999,-99.99,,,-99.99,,2013-04-06 17:00:00,
2013-04-06 12:33:00,61.0,-99.9,-100.00,SSE,164,5.0,21.0,-999,-99.99,,,-99.99,,2013-04-06 17:33:00,
2013-04-06 12:43:00,61.0,-99.9,-100.00,SSE,164,5.0,21.0,-999,-99.99,,,-99.99,,2013-04-06 17:43:00,
2013-04-06 12:53:00,61.0,-99.9,-100.00,SSE,164,5.0,21.0,-999,-99.99,,,-99.99,,2013-04-06 17:53:00,
2013-04-06 13:00:00,66.0,-99.9,-100.00,South,190,6.0,19.0,-999,-99.99,,,-99.99,,2013-04-06 18:00:00,
2013-04-06 13:33:00,66.0,-99.9,-100.00,South,190,6.0,19.0,-999,-99.99,,,-99.99,,2013-04-06 18:33:00,
2013-04-06 13:43:00,66.0,-99.9,-100.00,South,190,6.0,19.0,-999,-99.99,,,-99.99,,2013-04-06 18:43:00,
2013-04-06 13:53:00,66.0,-99.9,-100.00,South,190,6.0,19.0,-999,-99.99,,,-99.99,,2013-04-06 18:53:00,
2013-04-06 14:00:00,65.0,-99.9,-100.00,South,179,10.0,22.0,-999,-99.99,,,-99.99,,2013-04-06 19:00:00,
2013-04-06 14:33:00,65.0,-99.9,-100.00,South,179,10.0,22.0,-999,-99.99,,,-99.99,,2013-04-06 19:33:00,
2013-04-06 14:43:00,65.0,-99.9,-100.00,South,179,10.0,22.0,-999,-99.99,,,-99.99,,2013-04-06 19:43:00,
2013-04-06 14:54:00,65.0,-99.9,-100.00,South,179,10.0,22.0,-999,-99.99,,,-99.99,,2013-04-06 19:54:00,
2013-04-06 15:00:00,61.0,-99.9,-100.00,SSW,198,6.0,21.0,-999,-99.99,,,-99.99,,2013-04-06 20:00:00,
2013-04-06 15:42:00,61.0,-99.9,-100.00,SSW,198,6.0,21.0,-999,-99.99,,,-99.99,,2013-04-06 20:42:00,
2013-04-06 15:53:00,61.0,-99.9,-100.00,SSW,198,6.0,21.0,-999,-99.99,,,-99.99,,2013-04-06 20:53:00,
2013-04-06 16:00:00,56.0,-99.9,-100.00,SW,233,18.0,25.0,-999,-99.99,,,-99.99,,2013-04-06 21:00:00,
2013-04-06 16:33:00,56.0,-99.9,-100.00,SW,233,18.0,25.0,-999,-99.99,,,-99.99,,2013-04-06 21:33:00,
2013-04-06 16:44:00,56.0,-99.9,-100.00,SW,233,18.0,25.0,-999,-99.99,,,-99.99,,2013-04-06 21:44:00,
2013-04-06 16:53:00,56.0,-99.9,-100.00,SW,233,18.0,25.0,-999,-99.99,,,-99.99,,2013-04-06 21:53:00,
2013-04-06 17:00:00,58.0,-99.9,-100.00,WSW,241,9.0,26.0,-999,-99.99,,,-99.99,,2013-04-06 22:00:00,
2013-04-06 17:55:00,58.0,-99.9,-100.00,WSW,241,9.0,26.0,-999,-99.99,,,-99.99,,2013-04-06 22:55:00,
2013-04-06 18:00:00,58.0,-99.9,-100.00,SW,221,7.0,19.0,-999,-99.99,,,-99.99,,2013-04-06 23:00:00,
2013-04-06 18:35:00,58.0,-99.9,-100.00,SW,221,7.0,19.0,-999,-99.99,,,-99.99,,2013-04-06 23:35:00,
2013-04-06 18:43:00,58.0,-99.9,-100.00,SW,221,7.0,19.0,-999,-99.99,,,-99.99,,2013-04-06 23:43:00,
2013-04-06 18:54:00,58.0,-99.9,-100.00,SW,221,7.0,19.0,-999,-99.99,,,-99.99,,2013-04-06 23:54:00,
2013-04-06 20:00:00,55.0,-99.9,-100.00,West,264,4.0,10.0,-999,-99.99,,,-99.99,,2013-04-07 01:00:00,
2013-04-06 20:33:00,55.0,-99.9,-100.00,West,264,4.0,10.0,-999,-99.99,,,-99.99,,2013-04-07 01:33:00,
2013-04-06 20:43:00,55.0,-99.9,-100.00,West,264,4.0,10.0,-999,-99.99,,,-99.99,,2013-04-07 01:43:00,
2013-04-06 20:54:00,55.0,-99.9,-100.00,West,264,4.0,10.0,-999,-99.99,,,-99.99,,2013-04-07 01:54:00,
2013-04-06 21:00:00,52.0,-99.9,-100.00,SSW,207,6.0,9.0,-999,-99.99,,,-99.99,,2013-04-07 02:00:00,
2013-04-06 21:33:00,52.0,-99.9,-100.00,SSW,207,6.0,9.0,-999,-99.99,,,-99.99,,2013-04-07 02:33:00,
2013-04-06 21:43:00,52.0,-99.9,-100.00,SSW,207,6.0,9.0,-999,-99.99,,,-99.99,,2013-04-07 02:43:00,
2013-04-06 21:53:00,52.0,-99.9,-100.00,SSW,207,6.0,9.0,-999,-99.99,,,-99.99,,2013-04-07 02:53:00,
2013-04-06 22:00:00,49.0,-99.9,-100.00,WNW,303,10.0,12.0,-999,-99.99,,,-99.99,,2013-04-07 03:00:00,
2013-04-06 22:35:00,49.0,-99.9,-100.00,WNW,303,10.0,12.0,-999,-99.99,,,-99.99,,2013-04-07 03:35:00,
2013-04-06 22:44:00,49.0,-99.9,-100.00,WNW,303,10.0,12.0,-999,-99.99,,,-99.99,,2013-04-07 03:44:00,
2013-04-06 22:55:00,49.0,-99.9,-100.00,WNW,303,10.0,12.0,-999,-99.99,,,-99.99,,2013-04-07 03:55:00,
2013-04-06 23:00:00,48.0,-99.9,-100.00,North,4,2.0,8.0,-999,-99.99,,,-99.99,,2013-04-07 04:00:00,
2013-04-06 23:32:00,48.0,-99.9,-100.00,North,4,2.0,8.0,-999,-99.99,,,-99.99,,2013-04-07 04:32:00,
2013-04-06 23:43:00,48.0,-99.9,-100.00,North,4,2.0,8.0,-999,-99.99,,,-99.99,,2013-04-07 04:43:00,
2013-04-06 23:53:00,48.0,-99.9,-100.00,North,4,2.0,8.0,-999,-99.99,,,-99.99,,2013-04-07 04:53:00,